Weather History for La Crosse, WI

Change the Weather History Date:

Tuesday, October 9, 2012

  Actual Average Record
Temperature  
Mean Temperature 49 °F 53 °F  
Max Temperature 56 °F 63 °F 85 °F (2010)
Min Temperature 41 °F 43 °F 24 °F (1895)
Degree Days  
Heating Degree Days 16 13  
Month to date heating degree days 119 101  
Since 1 July heating degree days 287 261  
Cooling Degree Days 0 0  
Month to date cooling degree days 0 7  
Year to date cooling degree days 1081 781  
Moisture  
Dew Point 40 °F    
Average Humidity 67    
Maximum Humidity 93    
Minimum Humidity 40    
Precipitation  
Precipitation 0.17 in 0.07 in 1.45 in (1968)
Month to date precipitation 0.17 0.74  
Year to date precipitation 20.30 28.26  
Snow  
Snow 0.00 in 0.00 in 0.60 in (1925)
Month to date snowfall 0.0 0.0  
Since 1 July snowfall 0.0 0.0  
Since 1 September snowfall 0.0 0.0  
Snow Depth 0.00 in    
Sea Level Pressure  
Sea Level Pressure 29.82 in    
Wind  
Wind Speed 9 mph (SW)    
Max Wind Speed 20 mph    
Max Gust Speed 28 mph    
Visibility 9 miles    
Events Rain    
T = Trace of Precipitation, MM = Missing Value Source: NWS Daily Summary

Daily Weather History Graph

Daily Weather History Graph

Search for Another Location

Airport:

Trip Planner

Search our weather history database for the weather conditions in past years. The results will help you decide how hot, cold, wet, or windy it might be!

Date:

Astronomy

Oct. 09, 2012 Rise Set
Actual Time 7:12 AM CDT 6:30 PM CDT
Civil Twilight 6:43 AM CDT 6:59 PM CDT
Nautical Twilight 6:10 AM CDT 7:32 PM CDT
Astronomical Twilight 5:37 AM CDT 8:06 PM CDT
Moon 12:37 AM CDT (10/9) 3:08 PM CDT (10/9)
Length of Visible Light 12h 15m
Length of Day
11h 17m
Last Quarter, 36% of the Moon is Illuminated
Oct 9
Last Quarter
Oct 15
New
Oct 21
First Quarter
Oct 29
Full
Nov 6
Last Quarter

Hourly Weather History & Observations

Time (CDT) Temp. Windchill Dew Point Humidity Pressure Visibility Wind Dir Wind Speed Gust Speed Precip Events Conditions
12:53 AM 57.9 °F - 33.1 °F 39% 29.77 in 10.0 mi SW 15.0 mph 23.0 mph N/A   Overcast
1:53 AM 52.0 °F - 43.0 °F 71% 29.80 in 10.0 mi Calm Calm - 0.01 in Rain Light Rain
2:53 AM 50.0 °F - 45.0 °F 83% 29.77 in 10.0 mi SE 4.6 mph - 0.00 in   Overcast
3:53 AM 51.1 °F - 45.0 °F 80% 29.75 in 10.0 mi South 9.2 mph - N/A   Overcast
4:53 AM 51.1 °F - 44.1 °F 77% 29.76 in 10.0 mi South 5.8 mph - 0.00 in Rain Light Rain
5:53 AM 50.0 °F - 42.1 °F 74% 29.77 in 10.0 mi South 6.9 mph - 0.00 in   Mostly Cloudy
6:38 AM 50.0 °F - 42.8 °F 76% 29.77 in 10.0 mi SSE 6.9 mph - N/A   Overcast
6:53 AM 50.0 °F - 42.1 °F 74% 29.77 in 10.0 mi South 5.8 mph - N/A   Overcast
7:53 AM 48.9 °F - 42.1 °F 77% 29.78 in 10.0 mi South 5.8 mph - 0.01 in Rain Light Rain
8:53 AM 48.0 °F - 42.1 °F 80% 29.78 in 10.0 mi SSE 5.8 mph - 0.01 in   Overcast
9:14 AM 48.2 °F - 42.8 °F 82% 29.78 in 10.0 mi SSW 11.5 mph - N/A   Overcast
9:53 AM 48.0 °F - 43.0 °F 83% 29.77 in 10.0 mi South 12.7 mph - N/A   Overcast
10:53 AM 48.9 °F - 45.0 °F 86% 29.78 in 9.0 mi SSE 6.9 mph - 0.00 in Rain Light Rain
11:53 AM 48.9 °F - 46.0 °F 90% 29.79 in 5.0 mi WSW 8.1 mph - 0.04 in Rain Light Rain
12:24 PM 46.4 °F 39.8 °F 42.8 °F 87% 29.79 in 6.0 mi NW 16.1 mph 24.2 mph 0.03 in Rain Light Rain
12:53 PM 46.0 °F 40.6 °F 43.0 °F 89% 29.81 in 7.0 mi NW 11.5 mph - 0.06 in Rain Light Rain
1:23 PM 44.6 °F 39.7 °F 41.0 °F 87% 29.82 in 9.0 mi WNW 9.2 mph 18.4 mph 0.02 in Rain Light Rain
1:41 PM 44.6 °F 41.4 °F 42.8 °F 93% 29.82 in 9.0 mi West 5.8 mph - 0.02 in Rain Light Rain
1:53 PM 45.0 °F 41.8 °F 42.1 °F 90% 29.83 in 8.0 mi West 5.8 mph - 0.03 in Rain Light Rain
2:19 PM 44.6 °F 40.2 °F 41.0 °F 87% 29.82 in 10.0 mi West 8.1 mph - 0.01 in Rain Light Rain
2:53 PM 46.0 °F 43.9 °F 42.1 °F 86% 29.83 in 10.0 mi WSW 4.6 mph - 0.01 in   Mostly Cloudy
3:53 PM 46.9 °F - 42.1 °F 83% 29.83 in 10.0 mi SSW 8.1 mph - N/A   Clear
4:53 PM 46.9 °F - 39.9 °F 77% 29.83 in 10.0 mi SSW 10.4 mph - N/A   Scattered Clouds
5:53 PM 46.9 °F - 37.9 °F 71% 29.84 in 10.0 mi West 12.7 mph 20.7 mph N/A   Mostly Cloudy
6:53 PM 46.0 °F 39.9 °F 30.0 °F 54% 29.86 in 10.0 mi WNW 13.8 mph - N/A   Scattered Clouds
7:53 PM 45.0 °F 40.1 °F 30.9 °F 58% 29.88 in 10.0 mi West 9.2 mph - N/A   Mostly Cloudy
8:53 PM 45.0 °F 37.4 °F 32.0 °F 60% 29.90 in 10.0 mi WNW 18.4 mph 23.0 mph N/A   Overcast
9:53 PM 43.0 °F 36.0 °F 32.0 °F 65% 29.91 in 10.0 mi WNW 13.8 mph - N/A   Partly Cloudy
10:53 PM 42.1 °F 34.2 °F 30.0 °F 62% 29.94 in 10.0 mi WNW 16.1 mph - N/A   Mostly Cloudy
11:53 PM 42.1 °F 36.1 °F 28.0 °F 58% 29.95 in 10.0 mi WNW 10.4 mph - N/A   Mostly Cloudy